Погода в Кыддзявидзи

Россия / Республика Коми     60°29′29″N   49°36′05″E
темп.,
°C
ветер,
м/с
пор.,
м/с
влажн.,
%
обл.,
%
осадки,
мм/ч
давл.,
гПа
погр.,
м
4 марта, чт
чт400:00−11зюз259799 0.1 994115
03:00−13юз229892 0.1 99423
06:00−12ю1298100 0.0 99221
09:00−9вюв1297100 0.1 990119
12:00−5всв2494100 0.2 988390
15:00−5св3695100 0.8 988494
18:00−7с3895100 0.4 989332
21:00−9ссз389599 0.5 991277
5 марта, пт
пт500:00−12сз389697 0.1 993280
03:00−16зсз379798 0.1 996260
06:00−19зсз379898 0.1 998199
09:00−18зсз259476 0.1 999257
12:00−14з358883 0.0 1000624
15:00−14зсз358891 0.1 1002761
18:00−16зсз2697100 0.1 1004210
21:00−18зсз269894 0.1 1006172
6 марта, сб
сб600:00−19з279977 0.0 1006149
03:00−22зсз239981 0.1 100868
06:00−20з259894 0.1 1008160
09:00−18зсз249590 0.1 1009294
12:00−15зсз248799 0.1 1009700
15:00−14з3586100 0.1 1009962
18:00−18зсз2496100 0.1 100983
21:00−20зюз229994 0.1 100920
7 марта, вс
вс700:00−21юз2210092 0.0 100820
03:00−20ю249996 0.1 100797
06:00−22ю249987 0.0 100685
09:00−17ю379455 0.0 1005263
12:00−11ююв488539 0.0 1003606
15:00−11ююв5108869 0.0 1002649
18:00−12юв51293100 0.1 1000661
21:00−13юв41193100 0.4 999652
8 марта, пн
пн800:00−13вюв4994100 0.4 997617
03:00−14вюв4995100 0.8 997579
06:00−14в4994100 0.4 996529
09:00−13в4892100 0.6 996628
12:00−12всв4790100 0.3 996714
15:00−12св4790100 0.6 998782
18:00−14ссв3895100 0.3 1000500
21:00−14ссв3995100 0.5 1003491